Zurück zum Katalog

SL-8 DEB

AktivLEO
NORAD 21959·DEBRIS·🇷🇺 Russia

Gestartet Feb 12, 1991 von Plesetsk Cosmodrome

Loading…

Nächste Überflüge (nächste 24 Stunden)

TLE

AktuellSource: Space-Track

Epoche: Sep 14, 2026, 10:51 UTC

1 21959U 91009CH  26257.45268786 -.00000010  00000-0  49241-4 0  9999
2 21959  73.9667  59.7151 0129814 327.0747  60.8964 12.18983391579299

Verfolge SL-8 DEB in Echtzeit mit AllMySat

Download on the App Store